Zurück zum Katalog

COSMOS 2251 DEB

AktivLEO
NORAD 39109·DEBRIS·🇷🇺 Russia

Gestartet Jun 16, 1993 von Plesetsk Cosmodrome

Loading…

Nächste Überflüge (nächste 24 Stunden)

TLE

AlterndSource: Space-Track

Epoche: Sep 11, 2026, 04:05 UTC

1 39109U 93036BTY 26254.17071822  .00001981  00000-0  31086-3 0  9990
2 39109  74.0418  55.6680 0056787  89.8498  33.0750 14.72286402691816

Verfolge COSMOS 2251 DEB in Echtzeit mit AllMySat

Download on the App Store